Change the Weather History Date:

Wednesday, September 19, 2012

  Actual Average Record
Temperature  
Mean Temperature 80 °F -  
Max Temperature 87 °F 90 °F 95 °F (1987)
Min Temperature 75 °F 74 °F 68 °F (1954)
Cooling Degree Days 14    
Growing Degree Days 30 (Base 50)    
Moisture  
Dew Point 74 °F    
Average Humidity 83    
Maximum Humidity 97    
Minimum Humidity 59    
Precipitation  
Precipitation 0.00 in - - ()
Sea Level Pressure  
Sea Level Pressure 30.00 in    
Wind  
Wind Speed 5 mph (SSW)    
Max Wind Speed 9 mph    
Max Gust Speed -    
Visibility 10 miles    
Events      
Averages and records for this station are not official NWS values.
T = Trace of Precipitation, MM = Missing Value Source: NWS Daily Summary

Daily Weather History Graph

Daily Weather History Graph

Search for Another Location

Airport or City:

Trip Planner

Search our weather history database for the weather conditions in past years. The results will help you decide how hot, cold, wet, or windy it might be!

Date:

Astronomy

Sep. 19, 2012 Rise Set
Actual Time 7:07 AM EDT 7:19 PM EDT
Civil Twilight 6:44 AM EDT 7:42 PM EDT
Nautical Twilight 6:17 AM EDT 8:09 PM EDT
Astronomical Twilight 5:50 AM EDT 8:36 PM EDT
Moon 10:47 AM EDT (9/19) 9:58 PM EDT (9/19)
Length of Visible Light 12h 57m
Length of Day
12h 11m
Waxing Crescent, 17% of the Moon is Illuminated
Sep 19
Waxing Crescent
Sep 22
First Quarter
Sep 29
Full
Oct 8
Last Quarter
Oct 15
New

Hourly Weather History & Observations

Time (EDT) Temp. Heat Index Dew Point Humidity Pressure Visibility Wind Dir Wind Speed Gust Speed Precip Events Conditions
12:53 AM 75.9 °F - 75.0 °F 97% 30.01 in 10.0 mi NW 3.5 mph - N/A   Clear
1:53 AM 75.9 °F - 75.0 °F 97% 29.99 in 10.0 mi Calm Calm - N/A   Clear
2:53 AM 75.9 °F - 75.0 °F 97% 29.94 in 10.0 mi SE 5.8 mph - N/A   Partly Cloudy
3:53 AM 77.0 °F - 73.0 °F 88% 29.95 in 10.0 mi South 4.6 mph - N/A   Clear
4:53 AM 75.9 °F - 73.9 °F 94% 29.96 in 10.0 mi West 3.5 mph - N/A   Scattered Clouds
5:53 AM 75.0 °F - 73.9 °F 96% 29.97 in 10.0 mi West 3.5 mph - N/A   Clear
6:53 AM 75.9 °F - 73.9 °F 94% 29.98 in 10.0 mi Calm Calm - N/A   Clear
7:53 AM 75.9 °F - 73.9 °F 94% 29.98 in 10.0 mi WNW 5.8 mph - N/A   Overcast
8:53 AM 79.0 °F - 75.0 °F 88% 29.99 in 10.0 mi West 5.8 mph - N/A   Clear
9:53 AM 80.1 °F 85.1 °F 75.0 °F 85% 30.00 in 10.0 mi WSW 6.9 mph - N/A   Clear
10:53 AM 84.0 °F 90.2 °F 73.0 °F 69% 30.01 in 10.0 mi West 9.2 mph - N/A   Mostly Cloudy
11:53 AM 84.0 °F 90.2 °F 73.0 °F 69% 30.01 in 10.0 mi West 6.9 mph - N/A   Clear
12:53 PM 84.9 °F 90.7 °F 72.0 °F 65% 30.02 in 10.0 mi WNW 6.9 mph - N/A   Clear
1:53 PM 84.0 °F 89.6 °F 72.0 °F 67% 30.01 in 10.0 mi NW 6.9 mph - N/A   Mostly Cloudy
2:53 PM 84.9 °F 88.8 °F 69.1 °F 59% 30.01 in 10.0 mi Variable 3.5 mph - N/A   Clear
3:53 PM 84.0 °F 92.6 °F 75.9 °F 76% 29.99 in 10.0 mi ESE 5.8 mph - N/A   Partly Cloudy
4:53 PM 82.9 °F 90.2 °F 75.0 °F 77% 29.99 in 10.0 mi ESE 9.2 mph - N/A   Scattered Clouds
5:53 PM 82.9 °F 89.4 °F 73.9 °F 74% 29.97 in 10.0 mi East 9.2 mph - N/A   Scattered Clouds
6:53 PM 81.0 °F 86.2 °F 73.9 °F 79% 30.00 in 10.0 mi East 5.8 mph - N/A   Partly Cloudy
7:53 PM 81.0 °F 86.7 °F 75.0 °F 82% 30.00 in 10.0 mi ESE 9.2 mph - N/A   Clear
9:53 PM 81.0 °F 87.3 °F 75.9 °F 85% 30.04 in 10.0 mi ESE 5.8 mph - N/A   Clear
10:53 PM 81.0 °F 86.7 °F 75.0 °F 82% 30.06 in 10.0 mi ESE 4.6 mph - N/A   Clear
11:53 PM 80.1 °F 85.1 °F 75.0 °F 85% 30.06 in 10.0 mi ESE 4.6 mph - N/A   Clear